Weather History for Monroe, MI

Change the Weather History Date:

Thursday, November 29, 2012

  Actual Average Record
Temperature  
Mean Temperature 37 °F -  
Max Temperature 48 °F 39 °F 66 °F (2006)
Min Temperature 26 °F 28 °F 6 °F (1955)
Degree Days  
Heating Degree Days 28    
Moisture  
Dew Point 27 °F    
Average Humidity 69    
Maximum Humidity 86    
Minimum Humidity 46    
Precipitation  
Precipitation 0.00 in - - ()
Sea Level Pressure  
Sea Level Pressure 30.25 in    
Wind  
Wind Speed 6 mph (SW)    
Max Wind Speed 17 mph    
Max Gust Speed 21 mph    
Visibility 10 miles    
Events      
Averages and records for this station are not official NWS values.
T = Trace of Precipitation, MM = Missing Value Source: NWS Daily Summary

Daily Weather History Graph

Daily Weather History Graph

Search for Another Location

Airport:

Trip Planner

Search our weather history database for the weather conditions in past years. The results will help you decide how hot, cold, wet, or windy it might be!

Date:

Astronomy

Nov. 29, 2012 Rise Set
Actual Time 7:40 AM EST 5:03 PM EST
Civil Twilight 7:09 AM EST 5:34 PM EST
Nautical Twilight 6:34 AM EST 6:09 PM EST
Astronomical Twilight 6:01 AM EST 6:43 PM EST
Moon 6:05 PM EST (11/29) 8:26 AM EST (11/29)
Length of Visible Light 10h 25m
Length of Day
9h 23m
Full, 99% of the Moon is Illuminated
Nov 29
Full
Dec 6
Last Quarter
Dec 13
New
Dec 20
First Quarter
Dec 28
Full

Hourly Weather History & Observations

Time (EST) Temp. Windchill Dew Point Humidity Pressure Visibility Wind Dir Wind Speed Gust Speed Precip Events Conditions
12:12 AM 28.4 °F - 24.8 °F 86% 30.29 in 10.0 mi Calm Calm - N/A   Clear
12:32 AM 26.6 °F 21.2 °F 23.0 °F 86% 30.30 in 10.0 mi SSW 4.6 mph - N/A   Clear
12:52 AM 28.4 °F 22.2 °F 23.0 °F 80% 30.30 in 10.0 mi SW 5.8 mph - N/A   Clear
1:12 AM 28.4 °F 23.3 °F 24.8 °F 86% 30.29 in 10.0 mi SW 4.6 mph - N/A   Clear
1:32 AM 28.4 °F 22.2 °F 24.8 °F 86% 30.28 in 10.0 mi SW 5.8 mph - N/A   Clear
1:52 AM 28.4 °F 24.6 °F 24.8 °F 86% 30.28 in 10.0 mi WSW 3.5 mph - N/A   Clear
2:12 AM 28.4 °F 21.2 °F 24.8 °F 86% 30.29 in 10.0 mi WSW 6.9 mph - N/A   Clear
2:32 AM 30.2 °F 23.4 °F 24.8 °F 80% 30.29 in 10.0 mi WSW 6.9 mph - N/A   Clear
2:52 AM 30.2 °F 23.4 °F 24.8 °F 80% 30.30 in 10.0 mi WSW 6.9 mph - N/A   Clear
3:13 AM 30.2 °F 23.4 °F 24.8 °F 80% 30.30 in 10.0 mi WSW 6.9 mph - N/A   Clear
3:33 AM 32.0 °F 25.6 °F 26.6 °F 80% 30.29 in 10.0 mi SW 6.9 mph - N/A   Clear
3:53 AM 33.8 °F 27.0 °F 26.6 °F 75% 30.29 in 10.0 mi WSW 8.1 mph - N/A   Scattered Clouds
4:13 AM 33.8 °F 27.7 °F 26.6 °F 75% 30.29 in 10.0 mi WSW 6.9 mph - N/A   Mostly Cloudy
4:33 AM 33.8 °F 27.0 °F 26.6 °F 75% 30.29 in 10.0 mi SW 8.1 mph - N/A   Scattered Clouds
4:53 AM 33.8 °F 27.0 °F 26.6 °F 75% 30.30 in 10.0 mi WSW 8.1 mph - N/A   Clear
5:13 AM 33.8 °F 28.6 °F 26.6 °F 75% 30.29 in 10.0 mi SW 5.8 mph - N/A   Clear
5:33 AM 33.8 °F 27.7 °F 26.6 °F 75% 30.29 in 10.0 mi SW 6.9 mph - N/A   Clear
5:53 AM 32.0 °F 24.8 °F 26.6 °F 80% 30.30 in 10.0 mi WSW 8.1 mph - N/A   Clear
6:14 AM 32.0 °F 25.6 °F 26.6 °F 80% 30.29 in 10.0 mi SSW 6.9 mph - N/A   Clear
6:34 AM 32.0 °F 26.4 °F 26.6 °F 80% 30.30 in 10.0 mi WSW 5.8 mph - N/A   Clear
6:54 AM 30.2 °F 24.3 °F 26.6 °F 86% 30.29 in 10.0 mi SW 5.8 mph - N/A   Clear
7:14 AM 32.0 °F 26.4 °F 26.6 °F 80% 30.29 in 10.0 mi WSW 5.8 mph - N/A   Clear
7:34 AM 32.0 °F 26.4 °F 26.6 °F 80% 30.30 in 10.0 mi WSW 5.8 mph - N/A   Clear
7:54 AM 32.0 °F 26.4 °F 26.6 °F 80% 30.30 in 7.0 mi WSW 5.8 mph - N/A   Clear
8:14 AM 33.8 °F 28.6 °F 26.6 °F 75% 30.29 in 7.0 mi SW 5.8 mph - N/A   Clear
8:34 AM 33.8 °F 27.0 °F 26.6 °F 75% 30.29 in 7.0 mi SW 8.1 mph - N/A   Clear
8:54 AM 33.8 °F 26.4 °F 26.6 °F 75% 30.29 in 7.0 mi SW 9.2 mph - N/A   Clear
9:14 AM 33.8 °F 25.8 °F 26.6 °F 75% 30.28 in 7.0 mi SW 10.4 mph - N/A   Clear
9:35 AM 35.6 °F 28.0 °F 26.6 °F 70% 30.29 in 7.0 mi SW 10.4 mph - N/A   Clear
9:55 AM 37.4 °F 29.3 °F 26.6 °F 65% 30.29 in 10.0 mi WSW 12.7 mph - N/A   Clear
10:15 AM 39.2 °F 30.8 °F 26.6 °F 61% 30.29 in 10.0 mi WSW 15.0 mph - N/A   Clear
10:35 AM 41.0 °F 34.3 °F 26.6 °F 57% 30.29 in 10.0 mi WSW 11.5 mph 17.3 mph N/A   Clear
10:55 AM 41.0 °F 33.5 °F 26.6 °F 57% 30.29 in 10.0 mi WSW 13.8 mph - N/A   Clear
11:15 AM 42.8 °F 35.4 °F 28.4 °F 57% 30.29 in 10.0 mi WSW 15.0 mph 19.6 mph N/A   Clear
11:35 AM 44.6 °F 37.4 °F 28.4 °F 53% 30.27 in 10.0 mi SW 16.1 mph - N/A   Clear
11:55 AM 44.6 °F 37.4 °F 26.6 °F 49% 30.27 in 10.0 mi WSW 16.1 mph - N/A   Clear
12:15 PM 44.6 °F 38.4 °F 28.4 °F 53% 30.25 in 10.0 mi WSW 12.7 mph - N/A   Clear
12:35 PM 46.4 °F 40.4 °F 28.4 °F 50% 30.24 in 7.0 mi SW 13.8 mph - N/A   Clear
12:55 PM 46.4 °F 40.1 °F 28.4 °F 50% 30.23 in 10.0 mi WSW 15.0 mph 18.4 mph N/A   Clear
1:11 PM 46.4 °F 39.5 °F 28.4 °F 50% 30.23 in 10.0 mi WSW 17.3 mph 20.7 mph N/A   Clear
1:31 PM 48.2 °F - 28.4 °F 46% 30.22 in 10.0 mi SW 12.7 mph 19.6 mph N/A   Clear
1:51 PM 48.2 °F - 28.4 °F 46% 30.21 in 10.0 mi SW 12.7 mph - N/A   Clear
2:11 PM 48.2 °F - 28.4 °F 46% 30.20 in 10.0 mi SW 10.4 mph 18.4 mph N/A   Clear
2:31 PM 48.2 °F - 28.4 °F 46% 30.20 in 10.0 mi WSW 16.1 mph - N/A   Clear
2:52 PM 48.2 °F - 28.4 °F 46% 30.19 in 10.0 mi WSW 16.1 mph - N/A   Clear
3:12 PM 48.2 °F - 28.4 °F 46% 30.19 in 10.0 mi WSW 12.7 mph - N/A   Clear
3:32 PM 48.2 °F - 28.4 °F 46% 30.19 in 10.0 mi WSW 12.7 mph 19.6 mph N/A   Clear
3:52 PM 48.2 °F - 28.4 °F 46% 30.19 in 10.0 mi WSW 13.8 mph 17.3 mph N/A   Clear
4:12 PM 46.4 °F 41.9 °F 28.4 °F 50% 30.19 in 10.0 mi SW 9.2 mph - N/A   Clear
4:32 PM 46.4 °F 45.2 °F 30.2 °F 53% 30.19 in 10.0 mi SW 3.5 mph - N/A   Clear
4:52 PM 42.8 °F 40.1 °F 28.4 °F 57% 30.19 in 10.0 mi WSW 4.6 mph - N/A   Clear
5:12 PM 41.0 °F 39.0 °F 28.4 °F 61% 30.19 in 10.0 mi SW 3.5 mph - N/A   Clear
5:32 PM 42.8 °F 41.1 °F 28.4 °F 57% 30.20 in 10.0 mi SW 3.5 mph - N/A   Clear
5:53 PM 41.0 °F - 28.4 °F 61% 30.21 in 10.0 mi Calm Calm - N/A   Clear
6:13 PM 37.4 °F - 28.4 °F 70% 30.21 in 10.0 mi Calm Calm - N/A   Clear
6:33 PM 37.4 °F - 28.4 °F 70% 30.21 in 10.0 mi Calm Calm - N/A   Clear
6:53 PM 35.6 °F - 28.4 °F 75% 30.21 in 10.0 mi Calm Calm - N/A   Clear
7:13 PM 33.8 °F 30.8 °F 28.4 °F 81% 30.20 in 10.0 mi South 3.5 mph - N/A   Clear
7:33 PM 39.2 °F 35.9 °F 28.4 °F 65% 30.21 in 10.0 mi South 4.6 mph - N/A   Clear
7:53 PM 39.2 °F - 28.4 °F 65% 30.21 in 10.0 mi Calm Calm - N/A   Clear
8:13 PM 37.4 °F - 28.4 °F 70% 30.21 in 10.0 mi Calm Calm - N/A   Clear
8:33 PM 35.6 °F - 28.4 °F 75% 30.22 in 10.0 mi Calm Calm - N/A   Clear
8:54 PM 37.4 °F - 30.2 °F 75% 30.21 in 10.0 mi Calm Calm - N/A   Clear
9:14 PM 35.6 °F - 28.4 °F 75% 30.21 in 10.0 mi Calm Calm - N/A   Clear
9:34 PM 33.8 °F - 28.4 °F 81% 30.21 in 7.0 mi Calm Calm - N/A   Clear
9:54 PM 35.6 °F 31.7 °F 30.2 °F 81% 30.21 in 10.0 mi South 4.6 mph - N/A   Clear
10:14 PM 35.6 °F - 30.2 °F 81% 30.22 in 10.0 mi Calm Calm - N/A   Clear
10:34 PM 37.4 °F - 30.2 °F 75% 30.21 in 10.0 mi Calm Calm - N/A   Clear
10:54 PM 35.6 °F 31.7 °F 28.4 °F 75% 30.21 in 10.0 mi SSW 4.6 mph - N/A   Clear
11:14 PM 35.6 °F 31.7 °F 28.4 °F 75% 30.21 in 10.0 mi SSW 4.6 mph - N/A   Clear
11:34 PM 35.6 °F - 28.4 °F 75% 30.21 in 10.0 mi Calm Calm - N/A   Scattered Clouds
11:54 PM 35.6 °F - 30.2 °F 81% 30.21 in 10.0 mi Calm Calm - N/A   Mostly Cloudy